Location: Auckland
(36.8670°S, 174.7670°E)
Time: 23:29:24
(UTC+12:00)

A-11 Canister half - Pass Details

Date: 27 July 2019
Orbit: 1526 x 1683 km, 47.3° (Epoch: 21 August)

Event Time Altitude Azimuth Distance (km) Brightness Sun altitude
Rises 11:26:35 0° 246° (WSW) 4,740 11.2 32.0°
Reaches altitude 10° 11:29:47 10° 240° (WSW) 3,774 10.8 32.2°
Maximum altitude 11:39:06 51° 165° (SSE) 1,954 9.6 32.7°
Drops below altitude 10° 11:48:41 10° 91° (E) 3,887 11.3 33.1°
Sets 11:52:01 0° 85° (E) 4,890 11.8 33.2°
